| time (UTC) | temp F | wind direction | speed MPH | gust MPH | rain 1hr in | rain 24hr in | rain mn in | humidity % | barometer mb |
| 20260904131654 | 99 | 214 | 5.0 | 14.0 | 0.00 | 0.00 | 0.00 | 41 | 1018.5 |
| 20260904130152 | 99 | 112 | 8.0 | 16.0 | 0.00 | 0.00 | 0.00 | 41 | 1018.5 |
| 20260904124654 | 99 | 217 | 7.0 | 14.0 | 0.00 | 0.00 | 0.00 | 41 | 1018.7 |
| 20260904123142 | 99 | 139 | 6.0 | 13.0 | 0.00 | 0.00 | 0.00 | 39 | 1018.8 |
| 20260904121654 | 98 | 149 | 7.0 | 14.0 | 0.00 | 0.00 | 0.00 | 38 | 1018.9 |
| 20260904120151 | 98 | 128 | 5.0 | 14.0 | 0.00 | 0.00 | 0.00 | 38 | 1019.0 |
| 20260904114652 | 97 | 127 | 8.0 | 12.0 | 0.00 | 0.00 | 0.00 | 40 | 1019.3 |
| 20260904113142 | 96 | 119 | 6.0 | 12.0 | 0.00 | 0.00 | 0.00 | 42 | 1019.5 |
| 20260904111652 | 96 | 176 | 5.0 | 10.0 | 0.00 | 0.00 | 0.00 | 43 | 1019.6 |
| 20260904110154 | 95 | 89 | 4.0 | 9.0 | 0.00 | 0.00 | 0.00 | 43 | 1019.7 |
| 20260904104653 | 94 | 29 | 1.0 | 9.0 | 0.00 | 0.00 | 0.00 | 46 | 1020.1 |
| 20260904103157 | 92 | 159 | 0.0 | 7.0 | 0.00 | 0.00 | 0.00 | 48 | 1020.4 |
| 20260904101653 | 89 | 140 | 1.0 | 5.0 | 0.00 | 0.00 | 0.00 | 53 | 1020.5 |
| 20260904100155 | 88 | 214 | 0.0 | 4.0 | 0.00 | 0.00 | 0.00 | 55 | 1020.8 |
| 20260904094654 | 86 | 176 | 1.0 | 3.0 | 0.00 | 0.00 | 0.00 | 59 | 1021.0 |
| 20260904093143 | 83 | 175 | 0.0 | 2.0 | 0.00 | 0.00 | 0.00 | 62 | 1021.1 |
| 20260904091650 | 82 | 14 | 0.0 | 3.0 | 0.00 | 0.00 | 0.00 | 63 | 1021.2 |
| 20260904090156 | 81 | 42 | 2.0 | 6.0 | 0.00 | 0.00 | 0.00 | 65 | 1021.2 |
| 20260904084653 | 79 | 82 | 2.0 | 5.0 | 0.00 | 0.00 | 0.00 | 69 | 1021.2 |
| 20260904083140 | 78 | 39 | 3.0 | 6.0 | 0.00 | 0.00 | 0.00 | 72 | 1021.4 |
| 20260904081651 | 77 | 52 | 1.0 | 5.0 | 0.00 | 0.00 | 0.00 | 75 | 1021.4 |
| 20260904080154 | 75 | 355 | 1.0 | 6.0 | 0.00 | 0.00 | 0.00 | 78 | 1021.4 |
| 20260904074653 | 74 | 13 | 2.0 | 6.0 | 0.00 | 0.00 | 0.00 | 80 | 1021.5 |
| 20260904073145 | 73 | 53 | 3.0 | 6.0 | 0.00 | 0.00 | 0.00 | 81 | 1021.6 |
| 20260904071654 | 72 | 51 | 2.0 | 6.0 | 0.00 | 0.00 | 0.00 | 84 | 1021.6 |
| 20260904070154 | 71 | 63 | 2.0 | 6.0 | 0.00 | 0.00 | 0.00 | 86 | 1021.6 |
| 20260904064652 | 70 | 37 | 3.0 | 6.0 | 0.00 | 0.00 | 0.00 | 88 | 1021.7 |
| 20260904063149 | 69 | 40 | 3.0 | 5.0 | 0.00 | 0.00 | 0.00 | 90 | 1021.6 |
| 20260904061700 | 68 | 20 | 2.0 | 5.0 | 0.00 | 0.00 | 0.00 | 91 | 1021.6 |
| 20260904060153 | 68 | 30 | 3.0 | 6.0 | 0.00 | 0.00 | 0.00 | 91 | 1021.6 |
| 20260904054653 | 68 | 28 | 2.0 | 5.0 | 0.00 | 0.00 | 0.00 | 91 | 1021.5 |
| 20260904053144 | 68 | 45 | 3.0 | 6.0 | 0.00 | 0.00 | 0.00 | 91 | 1021.6 |
| 20260904051654 | 68 | 61 | 3.0 | 8.0 | 0.00 | 0.00 | 0.00 | 91 | 1021.5 |
| 20260904050154 | 68 | 33 | 2.0 | 6.0 | 0.00 | 0.00 | 0.00 | 91 | 1021.5 |
| 20260904044653 | 68 | 45 | 3.0 | 6.0 | 0.00 | 0.00 | 0.00 | 91 | 1021.6 |
| 20260904043144 | 68 | 32 | 2.0 | 6.0 | 0.00 | 0.00 | 0.00 | 91 | 1021.7 |
| 20260904041652 | 69 | 46 | 2.0 | 4.0 | 0.00 | 0.00 | 0.00 | 91 | 1021.7 |
| 20260904040153 | 69 | 52 | 3.0 | 6.0 | 0.00 | 0.00 | 0.00 | 91 | 1021.8 |
| 20260904034651 | 69 | 51 | 4.0 | 6.0 | 0.00 | 0.00 | 0.00 | 91 | 1021.9 |
| 20260904033145 | 69 | 46 | 2.0 | 8.0 | 0.00 | 0.00 | 0.00 | 90 | 1021.9 |
| 20260904031653 | 69 | 28 | 4.0 | 7.0 | 0.00 | 0.00 | 0.00 | 90 | 1022.0 |
| 20260904030152 | 69 | 355 | 1.0 | 4.0 | 0.00 | 0.00 | 0.00 | 91 | 1022.1 |
| 20260904024653 | 69 | 65 | 2.0 | 4.0 | 0.00 | 0.00 | 0.00 | 90 | 1022.2 |
| 20260904023142 | 69 | 38 | 2.0 | 5.0 | 0.00 | 0.00 | 0.00 | 90 | 1022.3 |
| 20260904021654 | 70 | 5 | 0.0 | 3.0 | 0.00 | 0.00 | 0.00 | 89 | 1022.3 |
| 20260904020156 | 70 | 5 | 0.0 | 0.0 | 0.00 | 0.00 | 0.00 | 89 | 1022.3 |
| 20260904014650 | 70 | 5 | 0.0 | 0.0 | 0.00 | 0.00 | 0.00 | 88 | 1022.5 |
| 20260904013139 | 71 | 5 | 0.0 | 0.0 | 0.00 | 0.00 | 0.00 | 88 | 1022.5 |
| 20260904011652 | 71 | 5 | 0.0 | 4.0 | 0.00 | 0.00 | 0.00 | 88 | 1022.6 |
| 20260904010157 | 71 | 355 | 3.0 | 5.0 | 0.00 | 0.00 | 0.00 | 88 | 1022.6 |
| 20260904004653 | 71 | 49 | 3.0 | 4.0 | 0.00 | 0.00 | 0.00 | 87 | 1022.6 |
| 20260904003142 | 72 | 50 | 0.0 | 2.0 | 0.00 | 0.00 | 0.00 | 87 | 1022.8 |
| 20260904001651 | 72 | 50 | 2.0 | 4.0 | 0.00 | 0.00 | 0.00 | 86 | 1022.9 |
| 20260904000153 | 72 | 37 | 1.0 | 4.0 | 0.00 | 0.00 | 0.00 | 86 | 1022.9 |
| 20260903234654 | 72 | 39 | 0.0 | 2.0 | 0.00 | 0.00 | 0.00 | 85 | 1023.0 |
| 20260903233147 | 73 | 39 | 1.0 | 4.0 | 0.00 | 0.00 | 0.00 | 85 | 1023.0 |
| 20260903231655 | 73 | 42 | 0.0 | 3.0 | 0.00 | 0.00 | 0.00 | 85 | 1023.0 |
| 20260903230153 | 74 | 69 | 0.0 | 3.0 | 0.00 | 0.00 | 0.00 | 84 | 1023.0 |
| 20260903224655 | 74 | 148 | 0.0 | 2.0 | 0.00 | 0.00 | 0.00 | 83 | 1023.0 |
| 20260903223143 | 75 | 170 | 0.0 | 0.0 | 0.00 | 0.00 | 0.00 | 83 | 1022.9 |
| 20260903221654 | 76 | 170 | 0.0 | 0.0 | 0.00 | 0.00 | 0.00 | 82 | 1022.9 |
| 20260903220156 | 76 | 171 | 0.0 | 0.0 | 0.00 | 0.00 | 0.00 | 83 | 1022.9 |
| 20260903214652 | 77 | 171 | 0.0 | 0.0 | 0.00 | 0.00 | 0.00 | 81 | 1023.0 |
| 20260903213139 | 77 | 171 | 0.0 | 0.0 | 0.00 | 0.00 | 0.00 | 81 | 1022.9 |
| 20260903211651 | 78 | 171 | 0.0 | 3.0 | 0.00 | 0.00 | 0.00 | 80 | 1022.9 |
| 20260903210154 | 78 | 177 | 0.0 | 5.0 | 0.00 | 0.00 | 0.00 | 79 | 1022.8 |
| 20260903204653 | 78 | 159 | 1.0 | 5.0 | 0.00 | 0.00 | 0.00 | 78 | 1022.9 |
| 20260903203143 | 78 | 111 | 2.0 | 9.0 | 0.00 | 0.00 | 0.00 | 77 | 1022.9 |
| 20260903201653 | 79 | 107 | 3.0 | 9.0 | 0.00 | 0.00 | 0.00 | 76 | 1022.9 |
| 20260903200155 | 79 | 99 | 3.0 | 9.0 | 0.00 | 0.00 | 0.00 | 76 | 1022.8 |
| 20260903194654 | 79 | 112 | 2.0 | 8.0 | 0.00 | 0.00 | 0.00 | 75 | 1022.6 |
| 20260903193142 | 80 | 92 | 2.0 | 11.0 | 0.00 | 0.00 | 0.00 | 74 | 1022.3 |
| 20260903191653 | 80 | 71 | 3.0 | 9.0 | 0.00 | 0.00 | 0.00 | 73 | 1022.1 |
| 20260903190151 | 80 | 146 | 4.0 | 11.0 | 0.00 | 0.00 | 0.00 | 71 | 1021.8 |
| 20260903184653 | 81 | 98 | 2.0 | 10.0 | 0.00 | 0.00 | 0.00 | 70 | 1021.5 |
| 20260903183154 | 81 | 96 | 5.0 | 11.0 | 0.00 | 0.00 | 0.00 | 69 | 1021.3 |
| 20260903180154 | 83 | 84 | 2.0 | 9.0 | 0.00 | 0.00 | 0.00 | 65 | 1021.0 |
| 20260903174652 | 84 | 135 | 2.0 | 9.0 | 0.00 | 0.00 | 0.00 | 64 | 1020.8 |
| 20260903173144 | 85 | 72 | 4.0 | 12.0 | 0.00 | 0.00 | 0.00 | 62 | 1020.7 |
| 20260903171653 | 86 | 105 | 5.0 | 11.0 | 0.00 | 0.00 | 0.00 | 61 | 1020.6 |
| 20260903170155 | 87 | 52 | 5.0 | 13.0 | 0.00 | 0.00 | 0.00 | 59 | 1020.6 |
| 20260903164652 | 87 | 140 | 5.0 | 12.0 | 0.00 | 0.00 | 0.00 | 59 | 1020.5 |
| 20260903163141 | 88 | 123 | 5.0 | 15.0 | 0.00 | 0.00 | 0.00 | 58 | 1020.5 |
| 20260903161652 | 89 | 136 | 8.0 | 12.0 | 0.00 | 0.00 | 0.00 | 57 | 1020.5 |
| 20260903154654 | 91 | 96 | 5.0 | 11.0 | 0.00 | 0.00 | 0.00 | 54 | 1020.4 |
| 20260903153147 | 93 | 113 | 2.0 | 12.0 | 0.00 | 0.00 | 0.00 | 48 | 1020.5 |
| 20260903151654 | 92 | 198 | 3.0 | 13.0 | 0.00 | 0.00 | 0.00 | 47 | 1020.6 |
| 20260903150154 | 93 | 168 | 5.0 | 15.0 | 0.00 | 0.00 | 0.00 | 46 | 1020.8 |
| 20260903144655 | 92 | 133 | 8.0 | 17.0 | 0.00 | 0.00 | 0.00 | 45 | 1020.9 |
| 20260903143140 | 92 | 117 | 7.0 | 19.0 | 0.00 | 0.00 | 0.00 | 44 | 1021.0 |
| 20260903141651 | 92 | 157 | 6.0 | 17.0 | 0.00 | 0.00 | 0.00 | 42 | 1021.0 |
| 20260903140159 | 93 | 167 | 8.0 | 17.0 | 0.00 | 0.00 | 0.00 | 41 | 1021.0 |
| 20260903134656 | 93 | 121 | 8.0 | 16.0 | 0.00 | 0.00 | 0.00 | 41 | 1021.1 |
| 20260903133143 | 92 | 123 | 9.0 | 17.0 | 0.00 | 0.00 | 0.00 | 43 | 1021.3 |